Location: Unspecified
(54.1780°N, 0.0000°E)
Time: 14:47:29
(UTC+00:00)

Transit 2A - Pass Details

Date: 23 June 2019
Orbit: 594 x 964 km, 66.7° (Epoch: 20 July)

Event Time Altitude Azimuth Distance (km) Brightness Sun altitude
Rises 10:16:37 0° 310° (NW) 3,434 9.0 53.5°
Reaches altitude 10° 10:20:42 10° 283° (WNW) 2,401 8.4 53.9°
Maximum altitude 10:22:52 12° 259° (W) 2,179 8.3 54.1°
Drops below altitude 10° 10:24:58 10° 236° (SW) 2,292 8.6 54.3°
Sets 10:28:40 0° 207° (SSW) 3,116 9.3 54.6°
